Regional Weather Roundup
Issued by NWS

Home | Current Version | Previous Version | Text Only | Print | Product List | Glossary Off
Versions: 1 2 3 4 5 6 7 8 9 10 11 12 13 14 15 16 17 18 19 20 21 22 23 24 25 26 27 28 29 30 31 32 33 34 35 36 37 38 39 40 41 42 43 44 45 46 47 48 49 50

000
ASUS43 KLOT 170810
RWRIL

ILLINOIS REGIONAL WEATHER ROUNDUP
NATIONAL WEATHER SERVICE CHICAGO/ROMEOVILLE IL
300 AM CDT WED SEP 17 2014

NOTE: "FAIR" INDICATES FEW OR NO CLOUDS BELOW 12,000 FEET WITH NO
SIGNIFICANT WEATHER AND/OR OBSTRUCTIONS TO VISIBILITY.

* THESE STATIONS ARE NOT UNDER NWS QUALITY CONTROL. THEY ALSO MAY NOT
  REPORT WEATHER SUCH AS PRECIPITATION OR FOG.

ILZ001-002-007-009-015-016-024-170900-
NORTHWEST ILLINOIS

CITY           SKY/WX    TMP DP  RH WIND       PRES   REMARKS
MOLINE         CLEAR     45  43  93 CALM      30.05F
STERLING*      CLEAR     41  37  87 CALM      30.06F
SAVANNA*       CLEAR     44  42  95 CALM      30.05F
$$

ILZ003-004-008-010-011-017-018-170900-
NORTH CENTRAL ILLINOIS

CITY           SKY/WX    TMP DP  RH WIND       PRES   REMARKS
ROCKFORD       PTCLDY    43  40  89 CALM      30.08F
FREEPORT*      CLEAR     43  40  91 CALM      30.08F
ROCHELLE*      CLEAR     39  38  95 CALM      30.07F
DE KALB*       CLEAR     44  40  86 CALM      30.07S
PERU*          CLEAR     46  43  90 CALM      30.07F
$$

ILZ005-006-012>014-019>023-170900-
NORTHEAST ILLINOIS

CITY           SKY/WX    TMP DP  RH WIND       PRES   REMARKS
CHICAGO-OHARE  CLEAR     52  46  80 CALM      30.06F
CHICAGO-MIDWAY CLEAR     53  49  86 S3        30.06F
AURORA         CLEAR     41  38  89 CALM      30.07S
LANSING*       FOG       44  44  99 CALM      30.07F VSB 3/4
JOLIET*        FOG       43  42  95 CALM      30.07F VSB 1/2
WAUKEGAN       CLEAR     46  44  93 CALM      30.05F
DUPAGE AIRPORT CLEAR     44  41  89 CALM      30.06F
KANKAKEE*      FOG       43  43  99 CALM      30.08S VSB 1
WHEELING       CLEAR     48  43  82 CALM      30.07F
MORRIS*        CLEAR     45  45 100 W3        30.06F FOG
ROMEOVILLE*    CLEAR     45  45 100 CALM      30.06F FOG
NORTHERLY ISL    N/A     54  47  77 SE2         N/A
$$

LMZ740>746-170900-
SOUTHERN LAKE MICHIGAN

STATION/POSITION SKY/WX   TEMP    WIND        PRES    VSBY  WAVE
                          AIR SEA DIR/SP/G                  HT/PER
                          (F)     (DEG/KT/KT) (MB)    (MI)  (FT/S)
SOUTHERN BUOY              61 64  220/  6/  8 1018.0F         0
WAUKEGAN HARBOR            53     240/  3/  5   N/A
HARRISON CRIB              58     180/ 11/ 12   N/A
BURNHAM HARBOR             54     150/  2/  6   N/A
CALUMET HARBOR             53     160/  4/  5 1016.8F
MICHIGAN CITY              50     130/  7/ 10   N/A
MICHIGAN CITY 6N           55 64  160/  8/ 10   N/A           1/ 2
ST. JOSEPH                 58 66  160/  8/ 10   N/A           1/ 3
$$

ILZ025>027-034>036-040-047-049-050-058-095>099-170900-
WEST-CENTRAL ILLINOIS

CITY           SKY/WX    TMP DP  RH WIND       PRES   REMARKS
QUINCY         CLEAR     53  50  89 S5        30.05F
GALESBURG*     CLEAR     46  45  95 S3        30.06F
MACOMB*        CLEAR     43  43  99 CALM      30.08F
JACKSONVILLE*  CLEAR     49  47  93 S3        30.08F
PITTSFIELD*    FOG       49  47  93 CALM      30.07F VSB 3/4
$$

ILZ028>032-037-038-041>044-048-051>054-059>061-170900-
CENTRAL ILLINOIS

CITY           SKY/WX    TMP DP  RH WIND       PRES   REMARKS
PONTIAC        CLEAR     45  43  93 CALM      30.07F
DECATUR        CLEAR     49  46  90 CALM      30.08F
PEORIA         CLEAR     50  46  86 CALM      30.07F
LACON*         FOG       44  43  96 CALM      30.07S VSB 1/4
LINCOLN*       CLEAR     47  45  93 CALM      30.06F
SPRINGFIELD    FOG       46  44  93 CALM      30.08F VSB 3/4
TAYLORVILLE    CLEAR     45  45 100 SE3       30.08F FOG
$$

ILZ033-039-045-046-055>057-062-063-170900-
EAST-CENTRAL ILLINOIS

CITY           SKY/WX    TMP DP  RH WIND       PRES   REMARKS
CHAMPAIGN      CLEAR     48  46  93 SW6       30.08F
DANVILLE*      CLEAR     44  44  99 CALM      30.05F FOG
RANTOUL*       CLEAR     48  45  88 CALM      30.08S
MATTOON        CLEAR     52  48  86 W5        30.08S
PARIS*         CLEAR     44  44 100 CALM      30.09F FOG
$$

ILZ079-100>102-170900-
SOUTHWEST ILLINOIS

CITY           SKY/WX    TMP DP  RH WIND       PRES   REMARKS
BELLEVILLE     CLEAR     48  48 100 CALM      30.08S FOG
CAHOKIA*       CLEAR     49  48  97 CALM      30.08S FOG
SPARTA*        FOG       46  46  99 CALM      30.09F VSB 1/2
$$

ILZ064>066-069>071-074>076-080>082-084>086-088>090-092>094-170900-
SOUTH-CENTRAL ILLINOIS

CITY           SKY/WX    TMP DP  RH WIND       PRES   REMARKS
CARBONDALE     PTCLDY    45  43  93 CALM      30.09S FOG
CAIRO*           N/A     49  47  91 CALM      30.08F FOG
EFFINGHAM*     MOCLDY    46  44  93 CALM      30.09F FOG
MARION           N/A     46  46 100 CALM      30.09F FOG
MT. VERNON     CLEAR     45  39  81 CALM      30.09F
CENTRALIA*       N/A     44  43  94 CALM      30.09S FOG
SALEM*         FOG       46  46 100 CALM      30.09F VSB 1/4
METROPOLIS*    CLEAR     46  46 100 CALM      30.08S FOG
$$

ILZ067-068-072-073-078-083-087-091-170900-
SOUTHEAST ILLINOIS

CITY           SKY/WX    TMP DP  RH WIND       PRES   REMARKS
LAWRENCEVILLE  FOG       45  45 100 CALM      30.09F VSB 1/2
FLORA*         FOG       43  43 100 CALM      30.09F VSB<1/4
FAIRFIELD*     MOCLDY   N/A N/A N/A CALM      30.09S FOG
HARRISBURG*    FOG       45  45 100 CALM      30.10S VSB 1/2
ROBINSON*      FOG       44  44 100 CALM      30.10F VSB 1/4
CARMI*         FOG       47  47 100 CALM      30.08F VSB 1/2
$$

ABBREVIATIONS USED IN REMARKS
   TC - TEMPERATURE IN CELSIUS
  WCI - WIND CHILL INDEX
   HX - HEAT INDEX
  VSB - VISIBILITY
$$



USA.gov is the U.S. government's official web portal to all federal, state and local government web resources and services.